Cincinnati, OH

1:22 AM EDT on September 21, 2014 (GMT -0400)
Newport Aquarium | Change Station
CLOSE
Current Station
Personal Weather Station
Location: Newport, KY
Elevation: 499 ft
Nearby Weather Stations

Elev 499 ft 39.09 °N, 84.50 °W | Updated 3 minutes ago

Mostly Cloudy
Mostly Cloudy
74.9 °F
Feels Like 77 °F
N
1.0
Wind Variable Wind from ESE
Gusts 5.0 mph

Today
High -- | Low -- °F
--% Chance of Precip.
Yesterday
High -- | Low -- °F
Precip. -- in
7:24 AM 7:36 PM
Waning Crescent, 8% visible
Pressure 29.92 in
Visibility 10.0 miles
Clouds Clear
Heat Index 77 °F
Dew Point 63 °F
Humidity 67%
Rainfall 0.00 in
Snow Depth Not available.
UV 0 out of 12
Pollen 4.60 out of 12
Ozone Good
PM2.5 Moderate
Flu Activity Not available.
METAR KLUK 210353Z AUTO 19008KT 10SM CLR 21/18 A2993 RMK AO2 SLP132 T02060183

More Conditions Fewer Conditions

Pressure 29.92 in
Visibility 10.0 miles
Clouds Clear
Heat Index 77 °F
Dew Point 63 °F
Humidity 67%
Rainfall 0.00 in
Snow Depth Not available.
UV 0 out of 12
Pollen 4.60 out of 12
Ozone Good
PM2.5 Moderate
Flu Activity Not available.
METAR KLUK 210353Z AUTO 19008KT 10SM CLR 21/18 A2993 RMK AO2 SLP132 T02060183

More Conditions Fewer Conditions

10-Day Weather Forecast

Almanac

Astronomy

Sep. 21, 2014 Rise Set
Actual Time 7:24 AM EDT 7:36 PM EDT
Civil Twilight 6:58 AM EDT 8:03 PM EDT
Nautical Twilight 6:26 AM EDT 8:34 PM EDT
Astronomical Twilight 5:54 AM EDT 9:06 PM EDT
Moon 4:58 AM EDT 6:11 PM EDT
Length of Visible Light 13h 05m
Length of Day
12h 11m
Tomorrow will be 2m 32s shorter.
Waning Crescent, 8% of the Moon is Illuminated
Today
Waning Crescent
Sep 24
New
Oct 1
First Quarter
Oct 8
Full
Oct 15
Last Quarter

Today's Extremes

State Highs State Lows

Community

WunderPhotos

Upload Photos

1,755,090 photos uploaded!

Nearby

Air Quality

  Air Quality AQ Index Pollutant
Yesterday Good
PM10
Yesterday Good
OZONE
Current Moderate
PM2.5
Current Good
OZONE
Saturday Moderate
PM2.5
Saturday Good
OZONE
Sunday Good
PM2.5
Sunday Good
OZONE
Monday Good
PM2.5
Monday Good
OZONE

Snow Depth

Station Depth Elevation
No new snow has been reported.

Earthquake Activity

City Distance Mag. Time & Date
No recent earthquake activity has been reported nearby.
Minimum magnitude displayed is 2.5.

Coastal Water Temperatures

Place Temperature
No Stations Reporting

Nearby Weather Stations